Wind_Speed
22 23 25 26 26 26 27 29 30 31 29 22 19 15 8 7 3 5 5 2 5 7 5 1 1 3 4 3 3 3 3 4 3 2 2 3 1 0 3 5 4 4 4 5 2 2 2 4 5 4 5 5 5 5 7 10 8 6 6 6 8 5 3 4 5 5 3 3 7 6 4 5 6 8 9 10 12 11 6 4 3 5 7 4 5 4 5
21 22 24 26 26 25 26 27 28 28 27 23 17 9 6 6 4 3 5 2 7 6 4 1 1 4 2 1 3 2 4 7 6 5 5 5 4 3 3 6 3 3 3 6 5 8 5 2 3 4 5 5 3 4 7 10 8 7 6 7 6 4 3 4 4 4 5 4 4 3 6 6 6 8 9 10 12 8 5 6 2 2 5 3 3 3 5
21 21 23 25 25 25 25 26 27 26 25 22 12 6 6 7 5 1 2 3 5 3 4 4 3 4 1 1 3 2 2 5 7 7 6 6 6 4 2 2 2 2 1 3 3 6 7 2 4 3 6 5 3 4 6 8 9 8 7 8 6 4 2 3 4 5 5 3 1 2 4 6 7 9 11 13 13 6 6 5 2 3 7 3 4 6 7
20 21 23 25 25 25 25 26 25 24 24 22 12 6 7 5 4 2 1 1 1 2 3 4 3 1 1 1 2 1 3 4 3 6 4 3 6 4 2 2 3 2 2 4 4 3 9 5 3 2 5 5 4 4 5 6 8 8 9 9 6 4 3 2 2 3 2 2 3 6 7 6 7 10 13 13 10 6 5 5 5 4 4 1 7 12 13
20 20 22 24 24 25 25 25 25 23 23 22 14 6 6 5 4 3 3 2 1 3 2 3 3 3 2 1 2 2 2 3 3 3 3 2 4 4 2 4 3 1 4 4 1 2 3 3 1 2 5 5 5 2 2 6 6 6 7 5 3 4 4 4 4 5 5 5 6 8 9 8 8 12 18 14 7 7 8 7 7 7 3 2 7 13 15
19 19 21 23 24 25 25 25 24 22 21 21 13 4 5 4 2 4 4 4 3 4 5 5 4 5 4 1 2 2 3 3 4 4 3 2 3 4 0 2 4 4 4 4 4 4 3 3 3 5 4 1 4 4 2 5 5 5 5 4 3 4 6 4 4 8 9 5 8 10 8 9 12 10 13 10 6 9 11 10 11 13 5 7 10 10 11
19 18 20 22 23 25 25 24 24 22 20 18 9 4 6 6 2 3 3 2 3 4 3 4 5 6 5 2 3 4 4 4 4 4 4 3 3 5 2 3 4 4 5 4 4 4 4 2 4 5 5 4 1 1 3 5 5 4 5 4 2 2 4 2 3 6 6 5 7 10 9 9 10 8 2 2 5 10 11 12 14 11 2 14 17 13 11
18 18 19 21 22 24 24 24 24 23 21 17 9 1 5 7 4 3 3 1 3 1 1 1 3 3 1 1 3 3 4 6 6 6 7 5 3 3 3 6 6 7 7 5 4 5 4 1 1 3 4 4 3 2 3 4 4 4 4 3 2 1 1 2 4 6 6 6 7 7 10 10 10 8 4 3 8 10 9 10 11 3 8 13 15 15 12
18 17 18 19 21 22 23 23 23 23 20 15 9 5 8 10 6 5 5 2 2 3 2 1 1 2 2 2 2 2 4 6 5 5 8 7 5 5 5 5 4 5 7 6 5 6 4 3 4 4 4 4 3 3 5 5 5 4 3 2 2 3 2 1 2 5 6 7 7 7 9 8 10 11 7 5 8 10 7 5 5 1 8 11 12 12 10
18 16 16 17 19 21 21 22 23 22 20 16 9 7 12 13 8 6 7 2 2 4 2 1 1 2 5 4 3 4 6 4 2 2 3 3 5 6 4 3 2 3 5 4 4 4 5 4 4 3 3 4 3 2 2 3 4 4 4 2 2 4 4 2 3 4 7 9 7 4 5 6 8 9 9 10 10 9 6 2 7 4 7 8 7 8 9
17 16 15 15 18 19 19 20 21 20 20 17 10 8 12 12 8 6 7 4 1 2 2 3 3 3 4 3 3 5 5 3 2 2 2 3 3 4 4 3 2 3 5 3 2 2 4 3 2 2 2 2 2 2 2 1 1 2 4 3 3 2 4 5 3 3 7 6 5 3 5 6 4 3 6 5 5 6 6 3 5 6 6 2 2 8 12
17 16 14 13 15 17 17 18 19 18 18 16 11 9 13 14 9 5 5 5 2 1 1 4 4 3 4 4 5 4 3 3 4 3 4 5 3 3 5 4 3 3 2 1 1 1 2 2 2 0 1 1 2 3 2 2 2 2 3 4 5 3 3 5 5 4 4 2 5 4 6 3 2 6 8 8 7 5 3 4 3 6 10 6 5 11 14
17 15 13 12 13 15 16 16 16 16 15 16 13 11 13 16 10 4 5 6 3 2 3 4 3 3 4 6 6 4 4 6 6 4 5 4 3 4 5 5 4 3 1 1 1 4 4 3 3 1 1 1 2 4 2 1 1 3 3 2 4 5 4 4 4 4 4 3 4 5 2 3 4 5 5 6 5 3 5 5 2 4 9 9 9 12 11
17 15 13 11 11 13 14 14 15 14 12 14 14 12 12 15 10 5 5 5 3 3 3 2 4 4 5 6 4 3 4 4 2 2 3 2 2 5 6 4 4 3 1 0 1 3 3 2 3 3 4 4 4 2 1 1 2 3 2 2 3 5 5 4 3 4 5 6 5 2 2 3 2 2 2 2 1 1 1 2 2 6 7 8 11 11 11
17 16 13 11 10 11 12 13 14 14 12 12 13 11 12 15 12 7 5 6 4 2 2 2 4 5 5 4 2 2 2 3 2 3 3 2 1 5 5 3 3 2 2 1 2 2 2 2 3 3 3 2 1 2 0 2 2 4 3 1 2 3 4 4 3 3 4 5 5 4 4 4 3 5 5 4 3 4 4 1 4 7 8 9 11 12 11
16 16 13 11 9 9 11 11 12 13 12 11 11 10 12 16 15 11 7 6 5 2 2 4 5 3 2 2 2 3 1 0 1 2 3 2 1 3 3 2 2 2 2 2 2 2 3 3 3 2 1 2 2 1 1 4 2 4 4 1 3 4 3 3 4 5 4 5 6 5 3 1 3 7 6 4 3 4 3 2 5 8 10 11 12 12 11
16 16 14 12 9 8 9 9 11 11 11 11 11 10 11 16 17 13 9 5 5 2 2 4 1 2 2 2 2 1 1 1 2 1 2 2 2 3 3 2 1 1 2 2 2 3 4 3 3 3 1 5 3 1 1 1 4 4 4 3 4 5 4 4 5 6 6 5 6 4 0 3 5 6 5 4 4 3 3 5 5 9 12 12 12 13 13
15 15 15 13 10 8 8 8 9 10 10 10 10 7 8 13 17 15 9 5 5 3 3 2 2 2 1 2 2 3 1 1 2 2 2 3 2 3 2 1 2 2 0 3 3 3 3 2 3 3 1 5 3 1 2 2 3 4 2 2 3 4 4 5 6 7 7 7 6 4 2 5 6 6 5 4 3 2 4 3 2 6 10 10 11 12 11
14 15 15 13 10 8 7 6 7 8 8 9 9 6 6 10 16 15 9 5 5 4 2 2 4 4 3 2 2 2 1 2 3 3 1 1 1 1 1 1 2 1 1 2 3 3 4 2 1 2 2 4 4 2 1 2 3 4 3 3 3 4 4 5 6 6 6 6 6 5 2 4 4 5 5 3 1 2 2 1 1 3 6 5 2 5 8
14 15 15 14 11 8 7 6 5 6 7 8 9 8 6 7 11 12 9 5 6 6 2 3 3 4 2 2 4 3 1 1 2 3 2 1 2 4 3 2 2 1 2 2 3 2 3 2 1 1 3 2 2 1 2 4 5 6 5 4 4 3 3 4 5 5 5 6 6 5 1 4 5 4 3 1 1 1 4 3 4 6 7 5 5 4 5
12 14 15 14 11 8 7 6 5 5 5 6 8 8 7 6 6 9 9 7 5 5 3 6 6 6 4 3 4 5 4 2 1 3 3 2 2 4 3 1 1 2 0 1 3 2 1 3 2 1 3 1 2 1 2 4 5 7 7 6 5 4 4 4 3 3 4 5 3 2 1 5 5 3 2 3 3 4 4 3 5 7 6 4 4 6 6
11 13 15 15 12 9 7 6 5 5 5 5 5 6 7 6 6 9 12 9 6 7 8 9 8 7 7 7 5 5 6 5 3 3 4 2 2 2 2 1 2 2 2 2 4 3 2 3 3 3 4 3 2 2 3 4 3 4 7 6 4 3 3 3 3 3 4 3 1 2 3 5 5 3 4 6 6 5 5 4 5 5 4 3 3 4 5
10 12 15 15 13 10 7 6 5 4 4 5 5 5 7 8 9 12 13 9 8 9 12 12 9 6 8 9 6 4 5 5 3 2 3 4 2 2 2 1 1 1 1 1 3 4 3 3 3 3 4 4 4 4 4 5 4 2 5 6 5 4 2 2 3 4 4 4 2 4 5 5 5 5 6 7 6 5 6 4 4 5 5 3 4 6 6
10 12 14 15 14 11 7 6 5 4 4 5 5 5 7 8 9 11 11 7 5 6 7 8 6 3 2 3 4 5 5 5 5 4 3 4 4 2 1 2 3 1 0 2 2 3 3 3 3 4 4 4 4 5 5 5 4 3 4 6 6 7 6 5 4 5 4 4 4 6 6 6 6 6 6 7 6 5 5 4 3 4 6 5 5 7 8
9 11 13 15 14 12 8 5 4 3 3 4 4 4 6 7 7 8 8 6 4 5 4 3 3 1 1 2 2 6 5 5 5 5 6 7 6 5 2 1 2 1 1 2 1 2 4 3 3 4 5 3 2 4 5 4 3 4 5 4 2 2 4 5 6 6 6 4 1 1 4 5 5 6 5 6 6 5 4 3 3 5 7 7 7 7 7
9 10 12 14 14 12 8 5 4 2 2 4 4 4 6 8 8 7 7 7 6 5 4 3 2 4 2 3 3 3 2 3 5 7 7 9 9 8 6 3 1 1 1 2 3 3 4 4 4 6 5 2 1 4 5 4 5 5 5 3 2 2 2 4 4 5 7 7 3 2 2 5 5 6 6 5 6 6 5 4 4 5 7 8 7 6 6
9 10 12 14 14 12 9 6 4 2 1 3 4 4 5 8 8 6 5 6 5 3 3 3 1 1 2 5 3 1 3 6 7 8 8 9 9 10 9 6 4 3 3 4 4 3 4 5 5 6 5 2 1 4 5 5 5 6 6 4 2 2 3 6 6 6 5 2 3 5 3 4 2 3 6 6 6 7 8 7 6 6 7 8 8 7 6
8 9 11 13 13 10 8 7 4 2 1 3 4 4 5 7 7 5 4 4 4 3 3 4 5 5 7 6 3 3 4 5 6 8 9 9 9 10 9 7 5 4 5 5 4 4 5 5 4 3 3 3 2 3 3 4 4 6 7 4 1 3 2 5 6 5 3 1 3 4 4 3 1 2 6 7 5 6 8 9 9 9 9 8 9 9 7
8 8 11 12 12 9 7 6 4 2 2 3 4 5 6 5 3 4 3 1 3 5 5 5 6 6 5 2 2 3 3 3 5 7 7 8 8 9 8 6 5 5 5 4 5 4 5 5 3 1 1 2 3 3 4 5 6 7 7 2 3 3 3 4 5 5 5 3 1 0 3 6 4 2 4 6 6 6 7 7 9 10 10 10 10 10 9
8 8 11 11 11 8 6 5 3 2 2 3 4 5 5 4 2 3 2 1 3 6 5 5 5 4 2 3 5 5 4 4 4 6 6 7 7 7 6 5 4 4 4 5 5 3 2 3 2 2 3 2 1 2 3 5 6 7 4 2 3 1 2 4 4 5 6 6 4 3 5 8 8 7 7 7 6 7 8 8 9 11 12 13 11 9 9
7 8 10 10 9 7 5 3 2 1 2 4 4 5 3 2 2 3 2 0 3 6 5 4 5 5 3 3 4 5 5 5 5 5 5 5 3 3 4 4 4 4 5 5 4 2 2 3 3 1 2 4 3 2 3 5 8 6 1 4 1 2 3 4 5 6 7 7 7 8 8 8 8 9 10 8 8 9 9 9 11 11 11 13 13 11 12
7 8 9 8 7 5 3 2 2 2 1 3 5 5 3 2 3 5 3 1 4 6 5 4 5 4 2 1 2 3 4 5 4 3 3 2 3 4 4 4 5 5 4 4 4 3 2 3 4 4 4 4 4 3 5 6 9 5 3 5 3 3 2 3 4 5 6 6 7 8 8 8 8 8 9 9 9 8 7 8 14 17 14 13 14 13 13
7 8 8 6 4 2 0 1 3 4 4 4 6 5 3 4 5 5 3 2 5 8 6 4 5 3 2 1 2 2 3 2 2 1 2 2 2 2 2 3 4 4 3 4 4 3 2 2 3 3 3 4 3 5 6 7 7 2 4 3 1 0 0 3 3 3 4 5 7 8 8 8 7 8 10 10 10 9 9 9 10 15 15 12 12 12 13
7 8 6 3 1 1 3 4 3 3 3 4 4 4 1 5 6 2 2 2 6 8 5 4 5 4 1 2 2 3 5 4 2 2 2 1 1 1 2 1 1 2 3 4 4 3 2 1 1 1 1 3 4 5 5 8 9 3 4 2 0 1 1 3 1 1 3 4 6 8 8 9 9 8 9 10 10 11 11 10 9 12 14 12 11 12 13
6 5 3 1 4 5 5 4 3 4 7 6 2 2 2 6 5 1 1 2 4 5 3 3 5 4 2 3 2 1 3 2 2 2 1 1 1 3 3 1 1 3 3 3 5 5 4 2 2 4 4 4 5 5 5 8 8 2 3 1 1 1 1 3 3 4 4 4 6 7 8 9 10 8 8 8 9 9 9 8 10 12 11 10 9 11 12
4 2 2 4 6 5 3 4 5 5 4 2 2 2 5 6 3 1 2 4 5 5 3 3 4 3 3 3 1 1 1 3 2 1 0 1 2 3 3 3 4 3 2 2 5 6 3 1 3 6 5 5 6 5 3 5 6 3 4 2 1 1 1 2 4 5 6 6 7 7 7 8 9 8 7 7 7 8 7 6 7 8 7 6 5 6 6
3 3 4 4 3 3 4 4 3 1 0 2 3 4 5 4 1 2 4 6 7 6 4 4 4 4 3 1 1 2 2 2 1 1 1 2 2 2 2 4 4 2 2 4 5 3 0 0 4 7 6 4 3 4 5 5 5 2 4 4 1 0 1 2 3 5 6 7 7 7 7 7 7 7 7 6 6 8 8 6 4 4 3 3 3 4 5
3 5 4 3 3 4 3 3 3 1 2 3 4 3 3 3 3 3 3 3 5 5 4 5 5 3 2 2 0 0 1 2 2 1 1 1 2 2 3 3 2 2 4 4 2 2 1 2 4 6 5 1 1 1 3 4 2 1 3 3 3 1 0 1 2 4 5 6 6 7 8 8 8 7 6 4 4 6 5 2 2 3 4 4 3 2 4
4 4 4 6 5 1 2 2 3 1 1 2 3 3 3 3 3 3 3 3 3 4 4 5 4 1 1 1 2 2 2 3 4 2 1 1 2 1 2 2 1 2 5 4 1 3 3 4 3 4 3 1 2 1 3 2 1 2 2 3 3 3 3 3 4 5 5 6 6 7 7 8 8 7 5 3 3 3 2 4 5 7 8 6 3 3 3
6 6 6 4 2 3 4 3 3 1 2 3 4 3 2 2 3 2 2 3 4 3 2 2 1 0 1 3 3 2 2 3 3 3 3 2 1 1 3 3 1 3 6 5 0 2 4 5 4 2 2 4 5 5 5 5 5 4 4 4 4 3 4 4 6 7 8 7 8 8 8 7 8 8 6 5 5 5 4 5 5 8 10 8 3 2 3
5 5 3 0 2 3 3 2 2 3 3 3 3 3 3 3 3 2 2 3 4 1 2 1 1 1 1 3 2 1 3 4 3 3 3 2 1 2 4 4 1 3 5 3 1 1 4 4 3 3 3 4 5 4 4 4 3 4 5 5 4 4 5 6 7 10 10 9 8 9 9 8 8 7 6 6 6 6 5 6 6 9 12 12 9 5 2
5 3 2 1 1 2 2 3 3 3 3 2 2 3 4 3 3 3 3 3 2 0 2 1 2 1 1 3 3 1 1 2 2 2 3 1 0 1 3 3 2 3 4 3 2 3 4 3 2 2 2 3 4 4 4 3 3 4 6 8 9 8 8 7 8 10 12 11 10 10 10 9 7 6 5 5 5 4 4 6 9 10 11 11 11 11 11
3 2 2 4 3 2 3 4 3 2 1 1 1 2 4 4 3 4 3 1 1 0 1 1 1 1 2 3 2 1 1 1 2 2 2 1 0 1 3 3 3 3 3 3 4 3 2 2 2 1 1 1 2 3 2 2 3 4 7 11 12 12 11 10 10 11 13 13 11 11 11 9 6 4 5 5 5 5 5 5 6 6 7 10 13 13 10
2 2 3 4 4 2 1 2 2 1 1 2 2 3 4 4 3 2 2 0 1 1 2 2 2 1 1 0 1 0 0 1 1 2 2 2 1 2 3 3 3 3 3 3 4 2 2 2 1 1 1 1 3 3 3 3 4 5 8 11 12 13 13 13 12 12 12 12 11 12 12 10 7 6 6 5 6 7 8 6 3 4 8 12 13 11 10
4 4 2 2 1 1 0 1 2 2 2 4 4 4 4 4 2 1 2 3 3 2 1 1 1 0 1 1 1 1 0 0 1 1 1 1 2 3 3 3 3 4 4 4 5 4 2 2 2 1 2 4 5 5 6 7 7 7 8 10 11 12 12 13 12 11 12 12 12 12 13 11 8 6 6 7 9 10 11 10 9 11 12 12 13 12 10
4 3 2 1 2 2 1 2 3 3 3 4 4 4 4 4 3 2 2 2 4 3 0 1 0 0 0 0 1 1 1 1 1 2 1 1 2 2 2 3 3 4 5 5 5 5 4 3 2 3 6 8 8 8 8 8 9 9 9 9 11 11 12 13 13 12 13 14 13 12 13 10 3 1 3 6 10 12 14 15 16 15 12 11 12 12 10
4 3 2 2 2 3 4 4 5 5 4 3 4 3 2 3 4 4 2 2 3 3 2 1 0 1 0 1 2 2 1 1 2 2 2 2 3 2 1 2 4 4 5 6 6 5 5 5 6 7 9 9 10 10 10 9 10 11 11 11 11 12 13 14 14 14 15 15 14 14 14 9 3 5 5 6 8 12 15 16 16 14 13 13 14 13 11
3 2 2 2 2 4 5 5 6 6 5 4 4 2 2 4 4 2 2 3 2 3 3 1 1 1 1 2 3 3 2 3 2 2 1 2 4 3 2 3 4 3 4 5 6 6 6 7 8 9 10 10 10 10 10 11 12 13 13 13 13 12 13 14 14 15 16 15 13 14 14 11 7 10 10 7 7 12 17 17 16 14 14 14 15 13 11
4 3 2 2 3 4 5 6 6 6 4 2 1 2 3 3 3 1 2 3 1 2 2 1 2 2 1 1 2 3 2 1 1 1 2 3 4 3 3 4 5 5 5 5 6 7 7 8 8 9 10 11 10 10 11 12 11 11 12 13 12 12 13 13 14 15 16 13 11 13 14 12 10 10 11 8 6 9 15 16 15 14 15 15 14 13 11
5 4 3 4 5 6 6 5 5 5 3 1 3 3 3 2 2 1 1 1 1 0 1 2 2 3 1 1 2 3 2 1 2 3 3 4 4 4 4 4 5 5 6 6 6 7 7 8 8 9 10 12 12 12 11 11 10 9 11 13 12 13 13 13 12 14 14 10 9 13 15 12 10 10 14 15 13 12 13 13 13 14 15 14 13 13 12
3 4 5 6 8 7 6 5 5 6 5 1 3 3 1 1 1 1 2 1 1 2 2 2 3 3 2 0 1 2 2 2 3 3 3 3 4 4 4 5 5 6 6 6 6 7 7 7 7 9 10 11 12 11 10 11 11 11 12 12 12 12 12 12 10 10 9 7 9 13 13 8 6 5 8 16 18 15 13 12 13 15 15 13 12 13 12
4 4 5 6 7 7 7 6 5 5 5 2 3 2 0 1 1 1 3 1 1 1 3 4 4 3 0 1 1 2 2 2 3 4 3 3 4 4 4 5 5 5 5 5 5 6 7 7 8 9 9 10 10 10 10 11 11 11 11 12 11 11 11 10 9 8 7 7 10 10 4 3 3 5 12 18 17 13 11 12 13 14 14 13 13 12 11
Wind_Direction
347 346 346 351 356 356 357 360 358 354 350 351 349 334 298 268 274 81 53 304 234 257 275 251 263 25 21 344 11 360 316 341 350 332 332 329 327 359 82 65 4 324 328 306 297 54 86 137 136 161 147 83 29 16 358 336 328 322 321 4 22 351 264 245 278 296 287 208 168 180 237 265 275 262 234 227 227 220 233 268 268 243 221 163 113 141 137
348 346 347 351 355 355 357 360 1 359 356 355 351 327 292 297 299 90 76 272 252 268 300 302 93 70 22 352 76 43 357 2 356 7 16 353 351 3 57 101 143 245 298 307 350 55 54 338 52 112 118 90 48 24 13 353 3 27 6 355 355 323 250 230 256 246 215 184 147 209 233 234 253 240 224 241 242 235 304 325 8 330 263 216 130 133 134
348 347 347 351 355 355 355 358 360 0 357 355 351 309 296 310 288 240 105 219 243 298 346 348 53 86 101 63 95 129 80 16 348 354 7 352 351 356 8 59 185 215 216 280 319 92 127 250 326 80 96 91 82 47 31 9 19 33 360 331 323 315 299 269 255 229 211 202 204 266 245 223 237 242 232 235 240 258 319 315 317 297 277 265 109 124 139
349 348 347 351 355 354 355 356 356 358 356 352 342 298 293 303 275 255 126 203 241 51 6 346 23 61 152 85 28 18 82 79 4 336 345 358 346 346 5 329 269 239 241 238 249 170 159 181 251 154 106 105 92 39 39 45 30 2 328 316 312 314 301 278 268 257 286 333 301 298 296 253 231 244 246 243 248 265 274 276 295 295 283 48 114 138 146
349 348 348 353 356 354 355 355 352 353 353 349 339 288 266 285 311 353 20 329 346 94 32 360 24 8 10 36 331 345 45 89 96 10 347 8 332 333 354 319 308 333 281 253 246 272 183 155 180 79 76 101 113 84 35 60 32 326 310 313 323 311 261 199 183 230 261 318 306 287 294 300 285 248 233 237 267 283 269 267 277 277 282 85 131 145 148
349 348 349 353 356 356 355 354 351 347 345 345 340 293 282 305 6 20 354 317 345 39 20 15 46 36 28 20 310 15 52 36 58 49 17 37 332 315 350 331 341 16 357 6 29 353 356 38 25 34 28 66 135 152 139 64 23 309 320 359 360 310 271 221 205 228 235 274 298 291 287 303 312 279 226 221 252 262 261 261 265 274 269 142 149 153 151
349 348 349 354 358 359 357 356 354 346 340 335 317 274 318 333 32 31 335 329 19 40 18 12 52 43 19 24 18 30 65 63 48 19 13 75 29 329 20 59 6 19 41 45 43 29 28 7 352 6 352 337 10 157 117 69 37 354 349 1 22 300 280 306 306 274 258 256 275 292 290 292 314 316 249 227 274 263 259 254 256 271 146 138 150 151 152
349 348 349 354 360 1 360 360 358 353 347 334 310 275 354 345 10 6 318 30 36 360 283 304 97 93 340 5 62 44 58 72 66 18 8 52 67 348 40 65 38 36 56 71 82 61 55 83 338 331 323 337 331 324 21 28 9 10 353 333 2 309 295 23 323 291 276 257 254 270 278 287 301 295 273 260 271 272 270 261 257 250 108 134 151 147 146
349 348 349 355 1 3 4 4 4 3 2 352 339 16 6 344 352 341 311 4 26 299 287 282 227 131 97 40 50 72 71 70 73 46 25 28 38 36 56 73 60 56 59 62 66 53 31 35 39 352 340 7 350 347 15 344 319 353 3 325 296 271 253 163 249 265 261 247 237 244 259 276 282 275 267 251 259 267 265 280 311 92 132 144 153 150 144
350 348 349 355 1 5 6 9 10 10 16 13 356 6 7 350 347 338 310 297 178 244 236 125 295 51 70 56 41 72 84 79 58 55 57 40 32 36 41 33 45 92 79 51 27 11 352 360 10 336 331 353 337 334 355 317 320 349 353 330 285 276 285 258 214 243 258 237 217 233 260 259 258 265 263 241 239 254 252 56 45 76 153 158 163 155 143
350 349 348 355 2 5 7 12 16 15 21 20 348 340 7 355 337 333 313 293 193 254 287 59 67 91 95 93 85 73 73 78 27 353 124 122 71 44 41 6 352 81 77 29 347 350 341 332 321 309 306 314 331 327 310 350 26 331 314 316 300 275 282 280 261 255 256 224 166 188 244 241 244 348 335 280 244 258 253 154 112 133 137 154 200 144 140
351 350 349 354 1 5 6 11 18 18 20 18 349 334 3 357 331 323 319 304 296 270 16 58 66 112 117 102 91 75 61 74 61 44 78 94 76 50 52 29 17 75 93 350 282 223 244 209 174 323 353 23 348 303 290 63 66 306 320 337 321 305 257 263 271 267 258 144 130 211 239 237 49 43 25 16 21 13 44 89 130 137 122 133 170 146 143
352 351 349 353 359 4 5 7 15 19 19 17 3 346 359 359 341 321 325 310 303 35 64 85 99 116 103 95 93 85 72 68 66 72 82 83 76 61 54 44 42 58 143 232 294 270 251 183 164 228 170 152 259 266 268 49 355 311 346 358 316 318 309 274 264 255 244 193 191 234 231 87 64 56 40 24 23 61 97 92 72 100 120 152 160 145 145
353 351 351 354 357 1 3 4 9 15 16 11 358 347 2 6 351 332 337 321 326 39 44 124 131 115 94 89 103 122 101 83 65 80 69 28 72 73 60 59 54 20 334 44 270 262 258 197 200 211 187 189 215 208 171 276 242 262 321 341 317 318 318 309 289 264 250 235 226 210 142 155 163 123 80 13 356 100 129 206 160 115 133 162 151 145 153
354 353 352 355 357 358 1 3 5 9 13 9 357 354 12 10 350 330 327 315 316 21 33 40 93 111 110 103 156 213 136 130 175 122 83 327 42 75 60 52 48 6 326 321 268 261 274 264 246 225 196 196 194 158 113 320 242 201 207 277 308 299 305 322 314 287 272 258 244 219 206 224 195 137 104 57 40 42 26 289 173 136 143 154 143 142 149
355 355 353 355 357 355 357 2 5 6 10 14 11 4 7 7 357 339 326 318 312 319 51 44 56 98 124 133 213 265 301 297 242 151 148 212 175 106 93 63 33 358 307 274 272 279 270 254 266 275 199 113 83 147 347 343 301 185 160 173 263 266 278 292 281 274 274 265 254 243 239 315 82 103 94 73 70 69 62 232 203 159 152 153 146 147 155
357 357 356 355 356 355 353 358 3 6 8 12 11 1 355 1 360 346 327 316 308 302 91 83 106 193 180 185 201 234 239 244 294 267 162 166 187 156 135 130 128 5 330 297 253 256 263 246 258 279 138 102 93 190 167 308 261 205 161 185 231 238 239 234 240 255 262 255 256 262 261 93 105 112 108 98 93 107 200 221 193 157 157 163 164 165 168
357 359 358 353 353 356 351 350 358 3 4 3 358 348 344 355 359 352 335 316 313 335 81 87 282 288 351 336 12 34 353 284 278 242 179 150 192 185 146 183 205 156 43 298 266 253 268 259 263 291 77 112 122 173 127 142 234 240 231 227 230 231 231 232 238 244 243 242 248 251 110 115 131 130 113 100 107 167 205 200 129 139 151 164 182 184 173
356 359 359 353 349 352 348 347 354 356 1 4 357 347 339 352 1 360 347 327 320 323 61 55 316 324 348 313 316 16 342 316 305 282 247 135 183 196 145 221 245 180 192 270 276 264 266 252 225 284 261 157 152 174 178 182 233 261 273 256 241 239 230 226 237 245 247 249 249 240 155 117 122 114 102 101 171 194 155 90 63 99 106 108 211 208 171
354 356 357 354 348 346 346 348 347 346 356 1 356 348 332 336 356 1 354 346 323 306 350 57 342 312 320 275 279 298 305 233 246 267 286 90 205 248 243 197 196 211 203 237 262 258 270 276 159 205 267 234 135 165 225 223 235 248 255 253 248 256 260 239 232 239 247 245 248 255 215 130 132 131 124 151 279 112 107 99 80 81 87 73 10 8 131
351 352 355 355 350 344 345 347 344 338 340 348 351 346 329 327 354 353 342 337 310 287 350 27 344 309 303 299 302 311 310 315 321 302 319 61 165 245 288 53 165 249 285 293 285 282 304 305 312 297 282 265 130 168 247 240 228 218 224 251 260 245 252 259 251 253 255 242 240 267 155 133 141 161 128 91 98 116 123 124 100 87 91 100 52 40 74
344 348 352 354 352 346 340 342 348 336 320 325 336 327 317 331 353 340 327 318 285 272 296 314 307 294 290 294 304 307 302 319 358 336 312 324 172 223 301 344 249 284 2 336 291 299 338 314 309 312 300 280 237 243 256 268 265 190 188 222 252 234 243 301 322 298 294 309 14 120 152 149 145 131 97 99 112 118 109 110 119 114 110 124 124 104 87
336 343 349 352 352 349 340 339 349 338 313 311 312 305 312 328 338 333 323 304 275 275 280 274 264 251 253 253 245 257 284 300 313 295 287 297 274 222 246 273 278 311 352 336 306 313 326 321 310 303 303 304 303 294 264 253 267 222 186 208 224 221 232 310 310 287 285 282 234 158 153 157 154 138 120 118 126 121 112 118 129 133 143 150 135 129 124
329 337 346 349 349 348 342 336 338 335 318 306 298 301 317 324 333 336 328 301 278 287 274 251 243 252 256 204 190 213 238 242 245 248 252 273 276 244 239 338 354 326 345 61 18 320 300 299 296 286 288 294 295 293 277 258 261 273 253 233 220 215 218 227 249 266 273 253 203 174 176 184 176 158 138 135 147 147 146 166 169 144 146 139 122 129 139
324 332 342 346 346 344 340 336 334 326 312 301 297 310 320 321 332 338 325 302 296 306 292 252 222 219 34 46 216 231 230 212 216 225 219 229 250 257 260 330 347 331 14 51 28 273 271 275 273 269 273 279 277 271 274 288 315 310 285 271 244 215 222 221 225 239 248 253 252 175 199 201 193 185 168 159 170 172 162 179 185 155 147 141 132 138 149
320 328 337 342 344 340 335 335 333 315 298 297 295 298 308 314 325 330 315 302 296 283 274 276 228 193 219 271 239 210 203 208 222 231 225 224 236 247 250 248 229 228 261 272 263 264 271 275 273 267 263 267 309 285 282 303 323 305 284 296 10 37 290 268 254 247 248 255 292 334 233 214 217 227 221 197 179 173 175 192 193 165 153 149 146 154 169
313 325 334 339 340 337 333 334 330 323 303 293 288 286 294 304 316 326 320 314 306 269 247 277 291 154 272 280 259 203 253 253 243 239 235 231 233 238 241 241 232 230 246 251 249 256 267 267 267 273 280 293 302 282 286 309 313 286 268 281 9 48 319 291 275 256 241 238 6 358 304 225 219 290 279 249 207 192 192 187 186 191 186 173 167 171 179
308 322 330 334 336 334 330 328 327 340 317 287 286 295 290 289 299 312 316 312 307 302 301 299 299 305 301 284 247 227 250 253 245 236 230 228 229 231 236 237 231 235 249 254 253 257 262 264 269 303 324 321 297 278 285 299 294 269 262 278 68 128 211 269 274 269 273 52 38 356 317 273 180 355 313 297 270 240 225 201 191 200 203 196 193 192 184
303 319 326 331 334 332 326 324 323 321 304 308 319 306 274 253 275 318 320 317 305 305 306 296 284 289 302 294 228 226 223 224 243 241 229 224 224 224 230 236 240 248 254 254 260 264 263 268 274 90 83 282 285 290 285 275 266 259 260 280 84 130 214 262 285 290 298 311 348 359 298 294 295 301 302 300 295 285 270 237 209 202 201 205 212 206 190
297 315 324 328 329 327 324 320 307 289 320 341 328 288 247 189 117 345 313 347 333 315 300 295 295 295 290 260 252 247 225 212 238 242 234 235 233 226 230 236 241 257 264 260 261 265 268 275 270 154 156 186 227 270 271 265 266 269 279 2 57 53 272 272 273 277 284 293 296 275 269 281 289 286 277 276 279 283 278 259 238 220 203 201 207 204 197
293 309 319 326 329 325 320 312 278 216 6 343 309 280 255 146 80 342 304 320 323 304 282 279 288 284 269 244 240 240 229 221 234 247 251 257 268 279 279 268 250 248 256 263 265 262 256 262 263 231 183 166 168 225 257 259 264 272 21 84 135 242 258 265 269 278 285 290 295 289 277 271 269 263 256 251 256 267 273 278 279 266 228 204 202 200 196
290 306 316 323 325 318 310 295 241 196 200 292 284 284 300 312 293 283 280 329 303 281 271 280 281 277 290 251 222 239 248 232 230 266 315 347 2 345 325 303 274 260 256 259 258 257 263 255 244 241 214 170 175 247 255 253 265 272 107 121 176 207 232 270 282 293 299 303 302 294 285 278 277 279 275 263 253 255 265 280 287 282 260 222 206 203 194
291 308 315 319 322 316 244 220 220 197 195 235 249 244 261 316 307 271 244 304 288 268 267 285 275 270 310 285 248 353 353 292 237 290 340 4 20 344 315 301 294 282 268 260 251 245 264 261 247 245 211 168 202 261 257 251 264 266 122 142 209 82 297 286 309 337 331 318 300 286 279 278 285 298 300 287 267 251 241 240 263 276 267 236 212 208 198
293 306 310 310 292 166 174 177 166 159 204 235 221 180 188 341 334 273 201 292 283 263 257 270 265 262 276 242 232 17 1 324 263 245 256 225 176 245 263 299 332 284 252 252 250 240 240 235 237 281 239 197 223 255 261 261 263 237 126 130 257 35 317 302 310 301 290 287 280 278 281 282 279 277 279 277 269 259 248 234 234 251 253 240 223 211 200
294 304 302 231 170 160 167 182 203 246 257 254 203 115 337 326 327 255 178 315 286 260 240 239 250 262 272 247 238 20 357 308 256 236 248 234 227 244 238 208 236 247 236 237 248 250 241 198 202 239 234 215 223 233 244 262 265 236 103 74 277 244 302 312 299 287 288 286 283 285 287 284 279 270 265 270 275 277 272 257 242 240 244 244 232 215 206
298 284 216 183 167 161 179 215 232 247 256 268 29 352 313 318 333 233 248 269 263 260 269 260 250 254 263 259 257 49 278 262 243 214 315 309 257 247 244 245 249 236 190 216 252 260 254 177 235 254 247 231 239 253 273 278 265 203 150 149 254 282 301 297 295 301 307 302 299 304 304 294 287 277 266 266 273 273 270 269 268 264 264 265 246 228 229
280 212 189 171 170 215 233 215 190 172 315 355 348 323 304 306 295 231 244 243 229 226 250 276 269 266 277 282 132 144 222 257 226 127 167 268 249 212 223 257 266 245 217 240 251 257 310 144 248 260 260 245 262 339 349 317 282 225 142 128 113 292 270 268 283 299 309 314 321 327 318 308 301 288 275 276 284 275 263 259 270 278 286 292 263 239 240
207 190 195 212 232 248 234 181 138 80 326 317 324 308 256 234 235 228 219 213 207 206 225 255 262 273 315 338 359 165 270 283 273 225 190 265 264 212 212 241 258 252 263 263 199 150 181 255 240 254 272 270 114 353 287 262 242 118 105 120 133 142 116 333 321 323 325 327 333 335 324 316 314 305 292 290 291 283 273 238 183 142 89 42 344 251 226
180 192 223 237 240 261 66 132 164 180 270 280 283 262 223 216 238 234 204 194 204 206 217 238 253 294 3 298 274 289 292 271 271 278 285 277 275 258 256 268 251 251 276 286 160 161 238 264 236 241 284 16 90 246 278 297 38 68 72 73 67 50 24 360 345 341 337 327 325 328 322 315 312 311 306 287 265 257 187 144 151 133 106 78 31 25 9
208 230 239 236 216 81 84 121 161 191 247 237 236 244 240 229 235 228 198 215 226 214 200 223 244 326 284 275 282 277 255 261 292 309 299 272 234 260 290 303 302 267 283 297 108 178 264 283 286 295 349 25 28 13 8 15 13 357 5 28 30 2 345 345 337 328 324 320 319 319 315 310 309 306 298 281 265 246 205 187 174 144 133 134 128 41 347
235 245 251 297 71 89 107 146 198 242 261 251 236 244 250 238 228 225 242 253 249 202 118 174 235 195 274 290 299 260 233 251 282 302 291 277 186 248 285 301 289 265 286 313 44 236 273 296 329 4 26 33 27 22 29 35 17 345 336 336 322 303 306 313 314 312 312 312 314 316 315 310 305 300 292 280 264 245 217 202 185 163 151 143 135 140 176
284 309 335 344 21 106 153 202 221 231 251 274 276 267 263 252 234 230 232 246 260 116 113 220 268 270 219 240 247 234 231 246 248 259 270 270 147 264 288 298 285 274 289 308 297 285 302 336 5 33 41 24 19 21 18 6 356 335 311 296 291 293 292 291 298 304 303 299 298 300 302 301 295 288 280 262 237 215 196 184 175 165 152 144 154 180 193
298 319 265 251 243 206 206 227 226 214 239 254 262 268 260 241 228 232 231 232 336 351 142 207 276 258 205 220 237 39 43 270 248 265 275 270 108 295 286 283 283 284 285 287 294 312 21 31 2 21 64 3 340 354 345 295 281 287 283 280 285 291 290 287 291 295 293 291 290 289 289 290 281 264 259 241 194 167 161 164 162 161 164 167 174 181 176
272 233 236 246 229 193 211 242 202 156 236 239 221 240 253 243 228 236 243 271 340 250 189 197 231 230 174 253 300 10 42 229 229 257 279 280 262 265 274 286 301 304 298 302 308 325 78 90 42 42 90 283 300 315 312 286 281 288 288 289 295 300 296 290 290 291 289 288 287 285 283 276 256 235 230 209 177 162 155 147 153 212 202 179 158 140 125
243 209 210 270 256 192 307 260 206 205 236 229 222 244 274 289 296 209 192 217 265 273 209 180 242 323 41 7 304 264 255 182 207 236 293 324 287 270 284 309 316 310 307 312 319 333 16 75 101 90 353 349 343 334 325 318 313 310 305 301 301 301 297 293 291 291 287 282 277 276 277 272 257 234 214 189 169 157 152 158 184 211 202 170 139 124 120
245 207 197 270 283 261 237 227 231 236 227 219 233 261 288 314 345 43 112 218 272 292 22 96 35 336 60 201 259 259 253 249 244 230 209 257 277 284 312 323 309 302 310 321 333 350 9 35 48 7 355 351 340 326 324 325 319 314 312 308 303 300 299 295 291 288 284 281 277 273 272 271 274 324 256 209 173 162 167 178 188 194 183 150 129 127 130
251 246 241 249 258 241 223 222 237 244 242 251 266 274 315 9 14 24 27 320 310 340 39 105 189 304 260 212 242 254 216 209 254 255 231 257 287 307 319 302 301 314 330 336 343 351 356 1 1 354 347 340 331 324 325 325 318 314 313 307 301 299 297 292 288 282 278 277 275 270 265 258 179 148 198 220 200 187 186 183 177 170 157 140 131 129 131
268 263 245 241 248 237 229 233 245 250 249 256 265 278 30 43 40 25 336 310 335 20 33 21 283 293 203 205 241 262 216 197 232 263 245 267 288 288 275 292 316 348 2 354 353 352 350 352 354 348 340 337 334 329 324 320 319 320 316 309 304 304 300 294 288 283 277 274 274 269 263 253 218 188 187 200 211 195 178 165 158 154 147 139 137 135 134
281 277 251 249 259 259 256 258 264 267 263 258 306 348 12 46 75 56 303 311 8 52 34 323 292 292 267 213 279 298 282 232 274 307 272 271 286 303 321 330 342 358 5 3 1 355 349 347 344 338 334 332 329 324 321 320 321 320 315 313 315 315 309 303 296 284 274 271 275 272 262 252 234 207 186 178 186 176 159 152 155 155 146 139 138 137 136
264 258 250 251 257 269 275 271 269 279 292 55 71 33 11 35 90 191 265 325 31 310 248 228 242 266 297 357 332 316 315 322 318 304 295 301 319 342 349 349 355 1 2 3 0 353 349 348 342 335 333 329 325 321 320 321 322 318 313 315 318 315 311 311 303 284 269 262 268 268 259 250 243 222 194 177 168 153 139 137 144 143 137 135 137 136 136
253 247 246 245 248 262 281 289 288 292 302 5 89 87 47 61 97 233 240 207 194 252 263 242 226 227 217 71 325 301 307 319 304 298 310 340 3 4 358 4 12 11 9 11 7 356 351 350 346 340 335 330 327 326 325 325 324 319 315 318 322 320 319 322 316 297 284 281 276 265 252 240 253 242 167 145 140 133 123 122 132 134 132 133 137 138 139
244 249 256 254 250 253 264 272 278 290 300 340 74 85 89 102 102 255 265 254 143 221 264 270 266 259 220 75 321 290 297 306 298 300 323 15 42 41 32 34 35 25 17 19 14 2 357 356 351 347 344 342 344 348 349 344 337 330 326 326 326 326 330 336 333 324 326 319 296 279 252 141 150 151 127 124 129 133 130 131 138 140 137 137 140 141 140
Height
806 803 801 798 795 793 790 787 783 779 775 773 773 771 766 763 758 748 746 747 744 750 758 753 750 754 755 753 753 754 753 752 750 748 747 748 747 747 751 757 760 760 759 756 753 755 761 762 762 764 764 764 764 759 755 753 750 751 756 755 751 753 760 770 770 754 738 728 721 723 726 729 737 735 727 728 728 726 734 743 744 742 746 764 789 807 801
806 803 801 798 795 793 790 787 785 782 779 776 775 773 766 758 750 743 745 746 744 752 758 755 755 759 757 756 757 757 756 756 755 753 753 752 750 752 755 757 762 761 757 756 755 762 771 768 757 757 763 765 762 758 757 757 755 759 765 764 759 762 764 770 780 776 762 752 749 747 741 738 744 738 728 728 722 722 733 737 743 753 754 766 794 811 803
806 803 801 799 796 793 790 788 786 783 781 779 777 774 766 760 755 747 742 741 743 749 751 750 755 760 760 761 761 760 760 760 759 758 757 754 753 756 757 754 756 756 756 760 758 759 773 778 766 759 763 766 762 759 760 760 760 763 766 763 760 765 767 770 783 789 786 784 779 769 756 746 745 738 730 729 724 729 742 745 755 766 756 759 788 806 800
806 804 802 799 796 793 790 788 786 783 781 779 778 776 769 765 763 755 746 741 742 747 746 747 755 758 760 763 762 761 764 763 760 759 760 758 755 756 757 754 755 757 758 762 762 758 763 773 769 761 764 768 765 762 760 761 764 765 765 762 760 766 768 768 777 782 783 786 778 762 753 750 750 745 738 734 731 734 744 752 764 763 757 772 788 789 792
806 804 802 799 796 793 790 788 785 783 782 779 777 774 767 764 762 759 758 754 749 751 750 750 756 757 758 766 765 763 765 764 762 762 762 761 759 759 759 757 759 763 763 763 767 763 759 763 765 763 764 766 765 764 761 762 766 765 764 761 761 772 773 766 771 776 771 770 765 755 753 755 754 749 744 739 737 740 747 757 762 754 761 791 793 777 786
807 804 802 799 796 794 791 788 785 783 781 779 778 774 765 761 761 757 759 763 761 760 759 756 757 759 760 765 765 765 767 768 768 766 763 762 762 763 765 764 762 765 767 773 778 775 770 772 772 769 768 766 766 767 763 763 765 764 763 761 763 777 777 763 764 769 764 762 762 757 755 756 754 747 742 740 744 750 754 756 756 750 761 785 789 782 788
807 804 803 800 797 795 791 788 785 782 779 777 778 776 766 761 762 758 756 762 764 764 763 759 761 765 766 767 768 768 770 772 771 768 766 768 766 766 770 770 766 765 767 776 784 784 787 793 787 777 774 771 769 771 770 768 765 765 768 766 766 777 777 766 766 769 764 763 764 760 758 758 757 751 745 747 751 752 753 753 750 751 760 770 776 785 790
807 805 803 800 798 796 792 789 787 783 780 776 773 774 771 767 768 766 761 762 764 763 761 761 764 768 769 771 771 770 772 774 774 770 771 775 773 768 772 773 770 770 771 776 783 782 786 794 789 780 778 777 774 775 776 774 770 769 773 771 769 776 779 771 772 779 775 767 764 764 763 762 762 758 752 755 758 756 755 752 748 756 769 770 771 783 788
808 805 804 801 799 797 794 791 789 784 782 779 773 772 773 771 769 769 769 769 768 767 763 761 764 767 769 772 772 772 774 775 776 776 773 775 775 772 773 775 774 775 778 780 782 780 778 781 781 776 777 778 776 776 777 777 776 775 776 776 773 776 778 773 777 790 785 768 766 768 764 763 768 765 759 760 763 760 756 754 753 761 772 777 780 787 787
809 806 804 802 800 798 796 793 791 788 784 783 781 778 777 775 771 769 772 773 769 767 763 761 766 771 771 773 772 773 776 774 777 782 778 774 774 773 773 775 776 780 785 785 782 779 776 776 775 773 773 772 772 773 774 774 778 779 778 779 776 775 778 775 779 793 787 768 766 769 769 780 784 770 760 759 760 758 756 759 764 765 770 783 789 787 783
809 807 805 803 801 799 798 796 793 791 789 788 788 785 781 782 780 774 774 776 769 762 762 765 770 773 772 772 773 774 776 776 777 782 782 776 774 773 773 775 778 783 787 783 777 775 775 774 772 771 772 772 772 772 772 773 777 779 779 780 778 776 781 779 777 786 785 769 765 774 787 798 788 764 753 753 754 757 759 764 769 770 776 787 785 779 780
809 807 806 804 802 801 799 798 796 794 793 792 791 789 786 786 785 780 780 781 771 762 765 770 771 772 770 771 775 777 777 777 776 776 779 778 775 773 774 777 782 785 782 777 774 775 775 775 776 775 774 776 776 774 775 776 778 777 776 781 783 780 783 782 777 781 782 774 778 798 807 794 773 759 756 756 756 758 762 767 768 769 780 787 782 780 784
810 808 806 804 803 802 800 799 798 796 795 794 792 791 789 787 786 783 782 783 774 765 768 772 770 770 771 772 777 778 776 776 776 775 778 779 778 777 777 779 782 781 776 774 775 778 779 780 782 784 782 781 781 779 778 780 781 780 777 780 785 786 786 784 778 779 783 784 792 806 802 781 768 768 766 764 765 766 772 780 778 773 778 783 782 784 784
810 808 807 805 804 803 802 800 799 797 796 795 793 792 791 790 789 785 784 786 779 767 769 774 772 772 775 777 779 780 778 779 780 779 779 778 778 779 778 778 779 776 773 776 779 781 783 784 787 790 788 787 791 791 786 783 782 783 783 782 783 787 789 789 787 783 782 786 790 793 793 786 781 778 772 768 770 770 775 786 785 777 777 780 783 787 787
811 808 807 806 804 804 803 801 800 799 797 796 795 793 793 792 791 788 787 787 783 774 772 775 775 775 778 780 780 780 780 781 782 781 781 779 778 779 778 776 776 775 775 779 782 783 783 787 792 795 794 796 802 800 793 789 784 781 783 784 784 786 789 793 798 791 781 786 791 793 799 799 787 777 772 769 769 768 772 783 788 782 778 780 784 789 790
811 809 808 806 805 804 804 802 801 800 799 797 796 795 794 793 792 790 787 785 787 785 778 773 773 776 778 780 779 780 782 782 781 782 784 783 780 779 778 776 776 777 778 781 784 784 786 790 793 794 796 799 806 806 802 801 794 783 781 785 786 788 788 790 799 796 787 791 797 794 799 800 787 778 775 772 771 770 774 790 796 785 780 782 786 792 794
811 810 808 807 806 805 804 804 802 801 800 799 797 797 796 794 793 792 788 785 785 783 775 771 773 776 778 780 779 778 780 781 781 783 786 787 783 780 779 778 778 779 781 784 786 785 788 790 789 790 793 795 801 808 807 807 804 794 788 790 791 793 791 790 798 799 791 794 796 790 793 795 785 779 778 774 771 773 787 805 800 781 779 785 786 790 793
811 810 808 807 806 805 805 804 803 802 802 800 799 798 797 796 795 793 790 788 786 780 772 771 775 777 777 779 778 777 778 779 780 781 782 783 782 780 781 781 780 781 782 785 788 788 789 790 788 790 794 794 798 804 804 806 806 798 791 793 795 795 792 791 795 794 790 793 794 790 792 790 781 778 779 775 775 784 800 808 794 778 779 783 782 785 787
811 810 809 807 807 806 805 804 804 803 802 801 800 799 798 798 796 795 792 790 789 785 776 772 775 777 775 775 777 777 777 779 781 780 783 788 785 778 778 779 780 782 783 785 788 787 788 789 785 786 792 794 795 799 800 802 802 795 791 796 798 797 794 793 793 791 788 789 788 790 794 789 779 779 779 778 787 798 801 796 786 781 783 783 783 783 783
812 810 809 808 807 806 805 805 804 804 803 802 801 800 800 799 797 797 796 793 793 788 778 774 776 777 775 775 778 778 777 780 782 781 784 790 785 780 784 787 784 782 784 788 788 786 787 787 783 783 788 789 790 795 797 798 796 791 792 795 793 791 795 795 790 786 788 790 790 796 800 789 778 782 785 785 793 798 793 787 786 786 787 788 789 787 784
812 810 809 808 807 806 806 805 804 804 804 803 802 801 801 799 798 798 797 796 796 792 782 778 778 777 776 775 776 777 777 779 781 780 781 782 781 783 790 791 786 783 784 787 787 784 784 785 781 781 783 782 785 793 796 796 794 786 785 791 789 786 791 794 787 780 786 795 797 798 795 784 778 784 788 788 789 788 786 787 789 790 790 792 794 793 791
812 810 809 809 807 806 806 805 805 804 804 803 803 802 802 800 799 799 797 795 795 792 785 781 780 779 779 778 777 777 777 777 778 780 781 781 780 782 785 784 783 782 781 784 787 786 786 788 787 787 787 784 785 788 789 793 795 787 783 790 792 785 783 788 787 782 783 789 791 789 785 780 779 782 784 785 786 785 785 788 790 792 794 793 795 798 798
812 810 809 809 807 806 806 805 805 805 804 803 803 802 802 801 799 798 797 795 793 789 784 781 780 779 778 777 778 779 779 779 779 779 781 783 782 780 780 780 783 782 780 784 788 788 789 790 789 791 792 788 785 787 788 790 791 787 784 787 786 779 778 784 787 783 781 781 780 780 782 782 781 782 783 785 786 786 787 789 790 792 793 793 795 799 801
811 810 809 808 807 806 806 805 805 805 804 804 804 802 802 802 800 799 798 794 791 789 784 779 778 778 776 775 777 779 779 780 781 780 781 783 784 783 781 780 781 783 783 785 786 787 789 790 787 790 793 787 785 790 792 789 785 783 782 782 778 775 777 782 785 786 788 786 779 776 781 783 781 782 784 786 787 787 788 790 790 791 793 795 797 799 802
811 810 809 808 807 806 805 805 805 805 804 804 803 803 802 802 801 801 800 796 793 793 790 784 779 777 776 775 777 778 778 778 779 780 781 782 782 784 784 782 782 785 786 786 786 788 791 790 788 792 793 786 784 788 789 788 787 785 784 784 782 779 780 782 785 787 788 784 778 776 779 780 780 782 785 786 788 788 788 789 790 791 793 796 798 800 803
810 810 809 808 807 806 805 804 804 804 804 804 803 803 803 802 802 801 800 798 795 792 791 788 781 776 776 776 776 776 777 778 779 779 780 781 781 781 782 782 783 784 785 786 787 788 790 790 789 792 791 787 787 788 786 785 787 788 787 785 784 784 785 784 784 785 785 782 780 782 783 783 782 783 783 784 787 789 790 792 791 792 794 797 799 801 803
809 809 808 807 806 805 804 804 804 804 804 803 803 803 802 802 802 801 800 800 798 794 792 790 783 777 775 775 775 776 777 778 778 778 779 779 780 780 780 781 783 785 785 786 787 787 790 792 791 790 789 787 787 788 786 785 787 789 789 785 784 791 798 796 791 791 793 793 792 792 792 791 789 787 785 784 784 786 789 792 793 794 795 797 800 802 803
809 808 808 807 805 805 804 803 803 803 803 803 803 802 802 802 802 801 800 800 800 799 796 791 784 780 778 776 774 776 777 777 777 777 778 777 778 779 779 779 782 784 785 787 788 790 792 794 793 793 793 792 791 790 789 789 792 793 790 785 786 794 803 803 797 794 794 795 794 794 795 793 790 789 789 786 783 784 787 789 791 793 793 794 797 801 803
808 807 807 806 805 804 804 803 803 803 802 802 802 802 801 801 801 801 800 800 800 799 796 792 786 781 780 778 775 774 776 777 777 776 776 776 777 778 778 779 781 782 783 786 788 791 793 792 792 795 797 796 796 796 794 794 796 792 785 784 788 790 792 795 795 793 791 790 790 793 795 793 790 789 790 789 787 786 787 786 788 790 791 793 795 797 800
807 807 806 805 804 804 803 803 803 802 802 802 802 801 799 799 801 802 800 800 801 799 796 795 790 782 777 775 775 774 774 776 776 776 775 775 775 776 777 779 780 781 784 785 786 791 796 794 791 793 793 793 797 801 799 796 794 787 781 784 791 791 790 790 791 792 790 789 789 791 793 792 791 790 790 789 789 789 788 787 786 787 788 791 792 794 797
806 806 805 804 804 803 803 802 802 802 802 802 802 800 798 798 801 802 800 800 801 799 797 796 791 782 776 774 774 774 774 775 775 776 775 775 776 777 778 780 781 782 785 787 787 791 795 793 792 793 792 791 795 799 798 796 794 786 784 790 794 792 790 789 788 789 789 788 788 790 790 790 790 790 789 789 789 790 790 790 788 786 786 788 790 793 795
805 805 804 803 803 802 802 802 801 801 802 802 801 800 800 800 801 801 800 801 801 798 796 795 791 785 782 780 776 773 774 775 775 776 778 779 780 780 781 782 783 782 783 786 789 791 790 790 792 793 790 790 794 794 794 796 793 786 785 790 790 789 789 790 789 789 789 788 789 791 792 790 790 790 789 788 788 789 791 792 792 791 789 787 788 792 794
805 804 803 803 802 802 802 801 801 801 801 801 801 801 800 801 801 800 800 801 800 797 794 794 792 789 787 784 779 776 777 777 777 779 782 782 782 784 785 785 785 785 785 786 788 788 787 787 790 790 788 788 791 792 792 790 787 784 785 786 786 786 788 788 789 791 791 791 792 793 793 791 790 790 790 789 789 789 790 791 793 795 792 788 787 790 792
804 803 803 802 801 801 802 801 800 801 801 800 799 800 800 800 800 799 800 800 799 795 792 792 792 790 787 785 783 782 782 781 782 784 785 784 783 785 787 788 789 790 789 786 785 785 786 787 790 793 792 789 791 794 792 785 779 780 783 784 784 786 788 788 791 792 792 791 791 790 789 789 789 789 789 788 787 787 787 788 792 794 793 789 786 788 791
803 802 802 802 801 801 801 801 801 801 800 798 798 798 799 800 799 799 800 800 798 796 793 790 789 789 790 791 790 786 784 783 784 785 785 785 785 784 785 789 794 793 788 784 782 783 784 787 791 793 790 788 791 793 789 782 778 779 783 785 786 787 789 790 791 790 789 789 789 788 787 787 787 787 788 788 786 786 786 788 789 790 789 787 786 787 790
802 802 801 801 801 801 801 801 800 799 798 798 798 799 799 799 798 799 800 800 800 798 794 789 786 788 792 795 792 787 784 784 784 784 786 789 789 787 785 787 789 787 783 782 782 780 780 783 787 785 782 783 786 784 780 778 779 779 783 786 787 787 789 791 790 788 787 786 786 786 785 785 785 785 785 786 786 786 787 788 788 788 788 789 790 790 791
801 802 801 802 802 802 800 798 798 798 799 799 799 799 799 798 798 799 799 798 797 797 794 792 788 784 784 787 788 786 786 785 783 785 790 791 790 788 787 786 784 780 780 782 781 779 779 782 785 782 779 780 782 782 781 783 783 779 780 785 786 786 787 788 787 787 787 785 784 785 785 784 784 784 784 785 787 787 787 788 789 790 791 791 792 794 794
801 801 802 803 802 800 797 797 797 799 800 799 799 799 798 796 795 795 794 794 794 792 790 791 788 782 782 787 788 786 788 789 786 786 788 787 784 783 783 782 780 779 779 779 777 777 781 785 784 782 781 781 783 786 787 787 784 781 781 783 785 785 787 787 786 787 787 787 786 786 785 784 784 784 784 785 788 789 789 789 789 790 791 792 794 795 796
802 802 802 802 799 796 796 798 799 799 799 799 799 798 794 792 793 791 788 789 791 789 786 785 784 782 786 793 792 786 786 789 788 785 784 784 783 782 780 777 776 778 779 778 774 776 781 783 779 780 785 787 787 789 790 788 786 785 785 785 786 787 787 787 786 786 786 786 786 784 784 784 783 783 783 784 786 788 789 789 789 790 791 793 795 796 797
802 801 799 797 796 796 798 799 800 800 798 797 797 795 791 790 790 786 784 785 785 781 780 782 782 781 782 786 787 785 784 786 785 784 784 782 779 779 779 777 775 778 781 779 774 774 777 775 773 778 789 795 793 793 794 794 792 792 791 790 790 790 789 788 788 787 785 784 783 782 781 781 781 781 781 782 783 784 786 787 789 789 790 793 796 797 799
800 798 797 796 797 798 799 799 799 799 796 794 793 793 792 789 783 779 781 786 783 777 775 779 782 782 782 782 783 785 786 783 780 780 782 780 776 778 781 778 773 777 782 779 771 769 772 774 780 789 797 799 796 795 795 796 795 795 795 794 792 790 789 788 788 787 785 784 783 782 781 780 780 780 780 781 781 782 783 785 787 789 789 792 795 798 800
800 798 798 798 797 798 798 798 798 797 795 794 796 795 791 785 780 779 781 781 777 774 775 778 779 780 780 779 778 780 782 781 778 778 781 780 776 777 779 776 775 781 784 774 765 767 774 783 791 796 797 797 796 795 794 795 795 795 795 794 793 790 788 787 787 787 785 784 783 782 780 779 779 780 780 780 781 781 782 784 786 788 789 792 794 797 800
800 799 799 799 797 796 797 796 794 794 796 799 803 802 794 784 779 777 776 773 771 774 779 779 776 776 777 776 774 776 780 781 778 777 778 778 776 777 780 780 779 780 776 767 764 774 785 793 796 796 795 796 795 793 793 794 794 793 794 793 791 789 788 786 786 786 784 783 782 781 780 778 778 779 780 780 780 781 783 785 786 788 791 792 793 795 797
799 798 799 797 793 794 798 797 792 795 801 803 800 796 791 783 776 774 777 779 778 778 778 776 775 777 778 775 775 779 781 779 778 779 778 776 775 777 781 781 776 770 768 769 772 778 785 792 795 794 794 794 792 791 791 792 791 792 793 791 789 788 787 786 785 784 783 782 781 780 779 777 777 778 779 780 780 782 784 786 787 790 792 793 793 794 796
798 797 799 799 796 796 800 799 794 794 797 795 787 781 777 773 772 775 780 781 776 772 771 770 772 775 778 777 776 778 778 777 779 781 781 782 783 781 778 775 770 768 771 776 777 777 782 791 796 795 793 792 791 790 790 790 789 789 790 788 787 786 786 784 783 782 781 780 779 779 778 776 775 776 777 779 780 781 783 785 788 790 792 792 792 794 797
797 793 795 800 801 798 798 800 797 791 784 778 773 770 767 764 765 769 773 773 769 767 768 770 772 775 778 779 778 778 777 777 780 779 780 785 790 783 772 770 773 775 777 779 780 782 787 791 792 791 791 791 790 790 789 789 789 788 788 786 786 785 784 783 782 781 780 779 778 777 776 775 774 776 778 779 779 780 782 785 787 789 790 790 791 794 797
795 789 790 797 800 796 792 791 787 779 770 765 763 762 761 762 764 767 769 769 767 767 768 771 772 773 775 775 776 776 775 777 779 777 775 779 781 775 769 773 779 780 780 783 787 789 790 789 788 789 791 791 790 789 789 788 788 787 786 785 784 783 783 782 781 779 778 778 776 776 775 774 774 776 778 780 780 780 781 783 785 787 788 789 792 795 798
794 790 792 797 797 791 784 778 772 765 761 760 758 757 758 763 769 773 772 769 768 770 773 774 774 774 773 772 773 772 771 773 777 775 771 772 774 773 773 777 778 776 779 786 790 790 789 790 791 792 792 791 791 791 790 788 788 787 786 784 783 781 781 780 779 778 777 776 775 775 774 773 773 775 776 777 779 780 781 782 784 785 787 789 792 795 798
794 791 792 793 789 780 771 767 765 761 758 757 757 759 762 769 775 776 774 770 770 773 774 773 774 775 772 769 769 770 768 769 772 772 769 769 771 771 774 779 782 782 785 788 789 789 791 793 794 795 794 793 792 792 790 789 788 787 785 783 781 780 779 778 777 777 777 775 774 774 773 772 772 773 773 775 779 780 780 781 783 785 787 790 793 795 798
794 792 791 790 786 777 768 764 765 763 759 761 766 769 771 775 778 776 773 772 773 774 773 773 774 774 769 768 773 776 772 767 767 770 770 769 767 767 774 782 786 787 789 791 792 793 795 796 796 796 795 793 793 792 790 788 786 785 783 782 780 779 778 776 775 775 774 773 773 774 773 771 770 770 771 775 778 780 781 782 784 786 789 791 794 796 799
794 791 787 783 780 775 768 766 767 765 761 764 771 773 773 776 778 776 772 772 775 776 775 773 771 770 770 773 779 780 772 766 766 769 770 768 768 773 780 786 787 787 791 795 796 797 798 798 798 798 797 795 794 792 789 787 785 784 782 780 778 777 776 774 773 773 772 771 772 773 772 771 770 770 772 774 778 780 782 784 786 788 791 794 796 797 799
793 789 782 775 771 769 766 764 764 762 760 762 768 771 771 772 774 773 771 771 775 779 777 770 765 766 770 774 775 772 768 768 770 770 768 768 774 780 786 790 790 792 795 797 798 799 800 800 799 799 798 796 794 792 789 787 785 783 780 779 778 776 775 775 774 773 772 772 773 772 771 771 773 774 774 776 779 781 783 786 788 791 793 795 797 798 800